Location: Dattensoll
(49.9928°N, 9.8954°E)
Time: 10:47:11
(UTC+00:00)

Cosmos 2173 Rocket - Pass Details

Date: 19 May 2025
Orbit: 943 x 1000 km, 83.0° (Epoch: 23 June)

Event Time Altitude Azimuth Distance (km) Brightness Sun altitude
Rises 23:09:32 0° 352° (N) 3,733 8.6 -20.0°
Reaches altitude 10° 23:12:08 10° 356° (N) 2,775 7.6 -20.0°
Maximum altitude 23:18:26 61° 76° (ENE) 1,119 4.3 -20.0°
Enters shadow 23:21:46 28° 147° (SSE) 1,746 4.9 -20.0°
